ACI141 YSSY-NWWW

Flight info

Callsign ACI141
Flight time 2h 16m
Altitude 39000
Route MARUB7/34R NOBAR B580 POXAK POXAK2
Aircraft B772/H-SDE2E3FGHIJ5LORVWXY/LB1D1

Departure

Time 2026-04-16 07:29
Airport Sydney Kingsford Smith International Airport (YSSY)

Arrival

Time 2026-04-16 09:46
Airport La Tontouta International Airport (NWWW)
Time Latitude Longitude Altitude Speed Heading
2026-04-16 06:54 -33.93827 151.16627 35 ft 0 kts 254°
2026-04-16 07:11 -33.93822 151.16645 35 ft 4 kts 257°
2026-04-16 07:12 -33.93817 151.16677 35 ft 4 kts 256°
2026-04-16 07:12 -33.93807 151.16706 32 ft 4 kts 227°
2026-04-16 07:12 -33.93799 151.16715 31 ft 0 kts 203°
2026-04-16 07:12 -33.93818 151.16720 33 ft 4 kts 154°
2026-04-16 07:13 -33.93840 151.16738 35 ft 4 kts 147°
2026-04-16 07:13 -33.93864 151.16752 35 ft 4 kts 157°
2026-04-16 07:13 -33.93889 151.16761 35 ft 4 kts 164°
2026-04-16 07:13 -33.93916 151.16771 35 ft 4 kts 163°
2026-04-16 07:14 -33.93942 151.16780 35 ft 4 kts 164°
2026-04-16 07:14 -33.93951 151.16783 35 ft 0 kts 164°
2026-04-16 07:16 -33.93960 151.16786 35 ft 7 kts 165°
2026-04-16 07:16 -33.94042 151.16823 34 ft 15 kts 132°
2026-04-16 07:16 -33.94037 151.16942 34 ft 15 kts 74°
2026-04-16 07:16 -33.94009 151.17059 34 ft 15 kts 74°
2026-04-16 07:17 -33.93982 151.17178 34 ft 15 kts 74°
2026-04-16 07:17 -33.93956 151.17284 33 ft 6 kts 73°
2026-04-16 07:17 -33.93955 151.17289 33 ft 0 kts 73°
2026-04-16 07:18 -33.93949 151.17315 32 ft 14 kts 74°
2026-04-16 07:18 -33.93905 151.17501 32 ft 26 kts 74°
2026-04-16 07:18 -33.93859 151.17692 34 ft 16 kts 74°
2026-04-16 07:18 -33.93914 151.17782 34 ft 18 kts 165°
2026-04-16 07:19 -33.94084 151.17827 32 ft 27 kts 168°
2026-04-16 07:19 -33.94265 151.17874 34 ft 26 kts 167°
2026-04-16 07:19 -33.94432 151.17909 34 ft 17 kts 186°
2026-04-16 07:19 -33.94542 151.17887 34 ft 20 kts 172°
2026-04-16 07:20 -33.94632 151.17910 34 ft 10 kts 168°
2026-04-16 07:20 -33.94688 151.17924 35 ft 4 kts 167°
2026-04-16 07:20 -33.94707 151.17929 34 ft 5 kts 167°
2026-04-16 07:20 -33.94799 151.17953 34 ft 22 kts 168°
2026-04-16 07:21 -33.94953 151.17993 35 ft 22 kts 168°
2026-04-16 07:21 -33.95050 151.18018 35 ft 20 kts 167°
2026-04-16 07:21 -33.95090 151.18160 35 ft 21 kts 77°
2026-04-16 07:21 -33.95059 151.18328 35 ft 20 kts 77°
2026-04-16 07:22 -33.95060 151.18491 34 ft 21 kts 130°
2026-04-16 07:22 -33.95184 151.18618 35 ft 24 kts 138°
2026-04-16 07:22 -33.95328 151.18720 34 ft 24 kts 165°
2026-04-16 07:22 -33.95491 151.18765 34 ft 24 kts 167°
2026-04-16 07:23 -33.95657 151.18808 34 ft 24 kts 167°
2026-04-16 07:23 -33.95822 151.18851 34 ft 24 kts 167°
2026-04-16 07:23 -33.96018 151.18902 34 ft 31 kts 168°
2026-04-16 07:23 -33.96220 151.18954 35 ft 30 kts 168°
2026-04-16 07:24 -33.96425 151.19007 34 ft 30 kts 168°
2026-04-16 07:24 -33.96628 151.19060 33 ft 29 kts 168°
2026-04-16 07:24 -33.96812 151.19066 34 ft 25 kts 179°
2026-04-16 07:24 -33.96962 151.19101 35 ft 8 kts 168°
2026-04-16 07:25 -33.97005 151.19113 35 ft 3 kts 168°
2026-04-16 07:25 -33.97021 151.19117 35 ft 2 kts 168°
2026-04-16 07:25 -33.97037 151.19121 35 ft 4 kts 167°
2026-04-16 07:25 -33.97093 151.19139 35 ft 9 kts 155°
2026-04-16 07:26 -33.97124 151.19203 34 ft 9 kts 90°
2026-04-16 07:26 -33.97115 151.19257 33 ft 6 kts 77°
2026-04-16 07:26 -33.97114 151.19262 33 ft 0 kts 76°
2026-04-16 07:27 -33.97114 151.19263 33 ft 0 kts 76°
2026-04-16 07:27 -33.97112 151.19276 33 ft 4 kts 77°
2026-04-16 07:27 -33.97100 151.19333 30 ft 10 kts 75°
2026-04-16 07:27 -33.97043 151.19369 29 ft 10 kts 350°
2026-04-16 07:28 -33.97009 151.19359 28 ft 0 kts 347°
2026-04-16 07:28 -33.97007 151.19358 28 ft 3 kts 347°
2026-04-16 07:28 -33.96812 151.19308 28 ft 66 kts 348°
2026-04-16 07:29 -33.96079 151.19116 35 ft 148 kts 348°
2026-04-16 07:29 -33.94962 151.18810 567 ft 172 kts 347°
2026-04-16 07:29 -33.93792 151.18824 1588 ft 173 kts 22°
2026-04-16 07:29 -33.92864 151.19738 2440 ft 182 kts 45°
2026-04-16 07:30 -33.92046 151.21038 2935 ft 210 kts 62°
2026-04-16 07:30 -33.91825 151.22876 3221 ft 244 kts 101°
2026-04-16 07:30 -33.92495 151.24877 3469 ft 269 kts 115°
2026-04-16 07:30 -33.92818 151.27125 3972 ft 280 kts 79°
2026-04-16 07:31 -33.92209 151.29326 4647 ft 284 kts 64°
2026-04-16 07:31 -33.91450 151.31549 5532 ft 286 kts 66°
2026-04-16 07:31 -33.90732 151.33799 6451 ft 289 kts 67°
2026-04-16 07:31 -33.90022 151.36084 7140 ft 298 kts 68°
2026-04-16 07:32 -33.89297 151.38453 7913 ft 303 kts 68°
2026-04-16 07:32 -33.88568 151.40857 8699 ft 306 kts 69°
2026-04-16 07:32 -33.87845 151.43258 9456 ft 310 kts 69°
2026-04-16 07:32 -33.87107 151.45713 10181 ft 315 kts 69°
2026-04-16 07:33 -33.86334 151.48289 10474 ft 336 kts 69°
2026-04-16 07:33 -33.85530 151.50968 10897 ft 351 kts 69°
2026-04-16 07:33 -33.84683 151.53788 11584 ft 360 kts 69°
2026-04-16 07:33 -33.83823 151.56653 12518 ft 365 kts 68°
2026-04-16 07:34 -33.82964 151.59516 13536 ft 370 kts 68°
2026-04-16 07:34 -33.82079 151.62458 14436 ft 376 kts 68°
2026-04-16 07:34 -33.81174 151.65464 15238 ft 385 kts 68°
2026-04-16 07:34 -33.80248 151.68534 16067 ft 393 kts 68°
2026-04-16 07:35 -33.79280 151.71584 16913 ft 398 kts 64°
2026-04-16 07:35 -33.77996 151.74555 17762 ft 401 kts 56°
2026-04-16 07:35 -33.76426 151.77353 18559 ft 405 kts 48°
2026-04-16 07:35 -33.74646 151.80011 19279 ft 409 kts 46°
2026-04-16 07:36 -33.72842 151.82654 20001 ft 414 kts 46°
2026-04-16 07:36 -33.70983 151.85364 20743 ft 419 kts 46°
2026-04-16 07:36 -33.69130 151.88071 21452 ft 424 kts 46°
2026-04-16 07:36 -33.67237 151.90844 22152 ft 430 kts 46°
2026-04-16 07:37 -33.65352 151.93614 22842 ft 435 kts 46°
2026-04-16 07:37 -33.63423 151.96455 23526 ft 441 kts 46°
2026-04-16 07:37 -33.61472 151.99331 24101 ft 446 kts 46°
2026-04-16 07:37 -33.59501 152.02238 24691 ft 450 kts 46°
2026-04-16 07:38 -33.57527 152.05148 25265 ft 454 kts 46°
2026-04-16 07:38 -33.55521 152.08104 25859 ft 459 kts 46°
2026-04-16 07:38 -33.53488 152.11096 26440 ft 464 kts 46°
2026-04-16 07:38 -33.51460 152.14078 26989 ft 469 kts 46°
2026-04-16 07:39 -33.49375 152.17140 27574 ft 474 kts 45°
2026-04-16 07:39 -33.47267 152.20234 28146 ft 479 kts 45°
2026-04-16 07:39 -33.45157 152.23327 28673 ft 484 kts 45°
2026-04-16 07:39 -33.43035 152.26437 29222 ft 489 kts 45°
2026-04-16 07:40 -33.40856 152.29626 29788 ft 494 kts 45°
2026-04-16 07:40 -33.38666 152.32830 30306 ft 499 kts 45°
2026-04-16 07:40 -33.36475 152.36032 30738 ft 504 kts 44°
2026-04-16 07:40 -33.34231 152.39308 31169 ft 510 kts 44°
2026-04-16 07:41 -33.31962 152.42617 31586 ft 515 kts 44°
2026-04-16 07:41 -33.29672 152.45953 31999 ft 520 kts 44°
2026-04-16 07:41 -33.27388 152.49280 32395 ft 525 kts 43°
2026-04-16 07:41 -33.25050 152.52680 32783 ft 531 kts 43°
2026-04-16 07:42 -33.22684 152.56116 33175 ft 536 kts 43°
2026-04-16 07:42 -33.20329 152.59535 33586 ft 540 kts 43°
2026-04-16 07:42 -33.17926 152.63025 33979 ft 545 kts 43°
2026-04-16 07:42 -33.15504 152.66538 34321 ft 549 kts 43°
2026-04-16 07:43 -33.13065 152.70072 34686 ft 552 kts 43°
2026-04-16 07:43 -33.10643 152.73579 35044 ft 554 kts 43°
2026-04-16 07:43 -33.08184 152.77134 35361 ft 557 kts 43°
2026-04-16 07:43 -33.05694 152.80729 35719 ft 560 kts 43°
2026-04-16 07:44 -33.03203 152.84325 36185 ft 560 kts 43°
2026-04-16 07:44 -33.00747 152.87868 36634 ft 559 kts 42°
2026-04-16 07:44 -32.98261 152.91451 37094 ft 559 kts 42°
2026-04-16 07:44 -32.95769 152.95037 37511 ft 560 kts 42°
2026-04-16 07:45 -32.93307 152.98574 37913 ft 561 kts 42°
2026-04-16 07:45 -32.90803 153.02168 38333 ft 561 kts 42°
2026-04-16 07:45 -32.88302 153.05755 38741 ft 561 kts 42°
2026-04-16 07:45 -32.85836 153.09287 39058 ft 561 kts 42°
2026-04-16 07:46 -32.83322 153.12883 39045 ft 565 kts 42°
2026-04-16 07:46 -32.78330 153.20023 39036 ft 559 kts 42°
2026-04-16 07:47 -32.73364 153.27112 39030 ft 558 kts 42°
2026-04-16 07:47 -32.68389 153.34190 39048 ft 559 kts 42°
2026-04-16 07:48 -32.63378 153.41308 39052 ft 560 kts 42°
2026-04-16 07:48 -32.58391 153.48379 39058 ft 561 kts 42°
2026-04-16 07:49 -32.53393 153.55454 39030 ft 561 kts 42°
2026-04-16 07:49 -32.48355 153.62574 39047 ft 561 kts 42°
2026-04-16 07:50 -32.43358 153.69621 39056 ft 561 kts 42°
2026-04-16 07:50 -32.38341 153.76683 39054 ft 561 kts 42°
2026-04-16 07:51 -32.33311 153.83750 39049 ft 560 kts 42°
2026-04-16 07:51 -32.28305 153.90770 39058 ft 559 kts 42°
2026-04-16 07:52 -32.23295 153.97781 39053 ft 559 kts 42°
2026-04-16 07:52 -32.18262 154.04812 39017 ft 559 kts 42°
2026-04-16 07:53 -32.13237 154.11819 39064 ft 559 kts 42°
2026-04-16 07:53 -32.08219 154.18803 39064 ft 560 kts 42°
2026-04-16 07:54 -32.03154 154.25840 39059 ft 560 kts 42°
2026-04-16 07:54 -31.98113 154.32834 39040 ft 560 kts 42°
2026-04-16 07:55 -31.93080 154.39797 39070 ft 559 kts 42°
2026-04-16 07:55 -31.88045 154.46741 39070 ft 560 kts 42°
2026-04-16 07:56 -31.82965 154.53738 39071 ft 560 kts 42°
2026-04-16 07:56 -31.77922 154.60673 39060 ft 559 kts 42°
2026-04-16 07:57 -31.72875 154.67604 39093 ft 559 kts 42°
2026-04-16 07:57 -31.67780 154.74584 39075 ft 560 kts 42°
2026-04-16 07:58 -31.62709 154.81521 39083 ft 560 kts 42°
2026-04-16 07:58 -31.57649 154.88431 39076 ft 560 kts 42°
2026-04-16 07:59 -31.52592 154.95324 39081 ft 559 kts 42°
2026-04-16 07:59 -31.47527 155.02213 39095 ft 560 kts 42°
2026-04-16 08:00 -31.42411 155.09159 39088 ft 560 kts 42°
2026-04-16 08:00 -31.37336 155.16038 39085 ft 560 kts 42°
2026-04-16 08:01 -31.32260 155.22907 39090 ft 559 kts 42°
2026-04-16 08:01 -31.27147 155.29813 39088 ft 559 kts 41°
2026-04-16 08:02 -31.22055 155.36677 39099 ft 559 kts 41°
2026-04-16 08:02 -31.14444 155.46917 39098 ft 557 kts 42°
2026-04-16 08:03 -31.09364 155.53735 39098 ft 557 kts 41°
2026-04-16 08:03 -31.04268 155.60563 39101 ft 557 kts 41°
2026-04-16 08:04 -30.99190 155.67353 39103 ft 557 kts 42°
2026-04-16 08:04 -30.94087 155.74166 39105 ft 557 kts 41°
2026-04-16 08:05 -30.88998 155.80951 39109 ft 558 kts 41°
2026-04-16 08:05 -30.83872 155.87774 39115 ft 558 kts 41°
2026-04-16 08:06 -30.78768 155.94549 39099 ft 557 kts 42°
2026-04-16 08:06 -30.73664 156.01311 39110 ft 556 kts 42°
2026-04-16 08:07 -30.68573 156.08047 39118 ft 556 kts 41°
2026-04-16 08:07 -30.63471 156.14787 39117 ft 556 kts 41°
2026-04-16 08:08 -30.59211 156.20407 39103 ft 555 kts 42°
2026-04-16 08:08 -30.54118 156.27114 39122 ft 554 kts 42°
2026-04-16 08:09 -30.49016 156.33821 39128 ft 555 kts 42°
2026-04-16 08:09 -30.43887 156.40552 39129 ft 555 kts 42°
2026-04-16 08:10 -30.38771 156.47254 39111 ft 555 kts 42°
2026-04-16 08:10 -30.33676 156.53920 39124 ft 554 kts 42°
2026-04-16 08:11 -30.28552 156.60610 39132 ft 553 kts 42°
2026-04-16 08:11 -30.23462 156.67244 39133 ft 553 kts 42°
2026-04-16 08:12 -30.18326 156.73927 39107 ft 553 kts 42°
2026-04-16 08:12 -30.13245 156.80529 39134 ft 551 kts 42°
2026-04-16 08:13 -30.08136 156.87155 39136 ft 551 kts 42°
2026-04-16 08:13 -30.03053 156.93736 39140 ft 551 kts 42°
2026-04-16 08:14 -29.97928 157.00358 39140 ft 551 kts 42°
2026-04-16 08:14 -29.92842 157.06922 39140 ft 550 kts 42°
2026-04-16 08:15 -29.87762 157.13467 39143 ft 549 kts 42°
2026-04-16 08:15 -29.82649 157.20043 39144 ft 549 kts 41°
2026-04-16 08:16 -29.77561 157.26575 39147 ft 549 kts 42°
2026-04-16 08:16 -29.72474 157.33096 39140 ft 547 kts 42°
2026-04-16 08:17 -29.67399 157.39592 39145 ft 547 kts 42°
2026-04-16 08:17 -29.62294 157.46114 39152 ft 546 kts 42°
2026-04-16 08:19 -29.41964 157.71984 39158 ft 546 kts 42°
2026-04-16 08:20 -29.36883 157.78422 39166 ft 545 kts 42°
2026-04-16 08:20 -29.31772 157.84890 39142 ft 545 kts 42°
2026-04-16 08:21 -29.26699 157.91298 39163 ft 544 kts 42°
2026-04-16 08:21 -29.21592 157.97740 39161 ft 544 kts 42°
2026-04-16 08:22 -29.16511 158.04138 39164 ft 544 kts 42°
2026-04-16 08:22 -29.11427 158.10530 39164 ft 544 kts 42°
2026-04-16 08:23 -29.06358 158.16894 39154 ft 543 kts 42°
2026-04-16 08:23 -29.01259 158.23284 39163 ft 542 kts 42°
2026-04-16 08:24 -28.96177 158.29643 39167 ft 542 kts 42°
2026-04-16 08:24 -28.91097 158.35989 39167 ft 543 kts 42°
2026-04-16 08:25 -28.86016 158.42327 39166 ft 543 kts 42°
2026-04-16 08:25 -28.80895 158.48705 39167 ft 543 kts 42°
2026-04-16 08:26 -28.75811 158.55027 39168 ft 543 kts 41°
2026-04-16 08:26 -28.70683 158.61395 39168 ft 543 kts 41°
2026-04-16 08:27 -28.65579 158.67721 39145 ft 543 kts 41°
2026-04-16 08:27 -28.60493 158.74017 39165 ft 542 kts 42°
2026-04-16 08:28 -28.55387 158.80328 39169 ft 541 kts 41°
2026-04-16 08:28 -28.50295 158.86612 39166 ft 540 kts 41°
2026-04-16 08:29 -28.45209 158.92878 39174 ft 540 kts 41°
2026-04-16 08:29 -28.40095 158.99168 39165 ft 540 kts 42°
2026-04-16 08:30 -28.35016 159.05409 39161 ft 539 kts 42°
2026-04-16 08:30 -28.29921 159.11660 39179 ft 539 kts 41°
2026-04-16 08:31 -28.24806 159.17924 39177 ft 539 kts 41°
2026-04-16 08:31 -28.19714 159.24144 39172 ft 539 kts 41°
2026-04-16 08:32 -28.14632 159.30343 39173 ft 538 kts 42°
2026-04-16 08:32 -28.09519 159.36573 39171 ft 538 kts 42°
2026-04-16 08:33 -28.04432 159.42764 39173 ft 537 kts 41°
2026-04-16 08:33 -27.99355 159.48933 39172 ft 537 kts 41°
2026-04-16 08:34 -27.94233 159.55145 39159 ft 537 kts 42°
2026-04-16 08:34 -27.89150 159.61303 39169 ft 536 kts 42°
2026-04-16 08:35 -27.84082 159.67434 39172 ft 536 kts 42°
2026-04-16 08:35 -27.78974 159.73604 39173 ft 536 kts 42°
2026-04-16 08:36 -27.73877 159.79751 39174 ft 536 kts 42°
2026-04-16 08:36 -27.68800 159.85865 39164 ft 535 kts 42°
2026-04-16 08:37 -27.63691 159.92009 39171 ft 535 kts 42°
2026-04-16 08:37 -27.58628 159.98089 39172 ft 534 kts 42°
2026-04-16 08:38 -27.53518 160.04216 39172 ft 534 kts 42°
2026-04-16 08:38 -27.48433 160.10304 39149 ft 534 kts 42°
2026-04-16 08:39 -27.43358 160.16372 39162 ft 533 kts 42°
2026-04-16 08:39 -27.38258 160.22461 39168 ft 532 kts 42°
2026-04-16 08:40 -27.33186 160.28507 39169 ft 532 kts 42°
2026-04-16 08:40 -27.28112 160.34547 39170 ft 533 kts 42°
2026-04-16 08:41 -27.22996 160.40628 39153 ft 533 kts 42°
2026-04-16 08:41 -27.17938 160.46633 39165 ft 531 kts 42°
2026-04-16 08:42 -27.12840 160.52677 39167 ft 530 kts 42°
2026-04-16 08:42 -27.07771 160.58676 39171 ft 531 kts 42°
2026-04-16 08:43 -27.02701 160.64669 39167 ft 531 kts 42°
2026-04-16 08:43 -26.97582 160.70711 39155 ft 531 kts 42°
2026-04-16 08:44 -26.92516 160.76682 39167 ft 530 kts 42°
2026-04-16 08:44 -26.87442 160.82656 39161 ft 529 kts 42°
2026-04-16 08:45 -26.82350 160.88642 39178 ft 529 kts 42°
2026-04-16 08:45 -26.77277 160.94595 39164 ft 529 kts 42°
2026-04-16 08:46 -26.72211 161.00532 39155 ft 529 kts 42°
2026-04-16 08:46 -26.67123 161.06498 39164 ft 528 kts 42°
2026-04-16 08:47 -26.62060 161.12416 39161 ft 528 kts 42°
2026-04-16 08:47 -26.56970 161.18351 39160 ft 528 kts 42°
2026-04-16 08:48 -26.51905 161.24253 39171 ft 528 kts 42°
2026-04-16 08:48 -26.46806 161.30189 39167 ft 529 kts 42°
2026-04-16 08:49 -26.41717 161.36105 39161 ft 529 kts 42°
2026-04-16 08:49 -26.36626 161.42016 39160 ft 529 kts 42°
2026-04-16 08:50 -26.31498 161.47963 39161 ft 529 kts 42°
2026-04-16 08:50 -26.26398 161.53867 39162 ft 529 kts 42°
2026-04-16 08:51 -26.21315 161.59744 39164 ft 528 kts 42°
2026-04-16 08:51 -26.16224 161.65624 39159 ft 527 kts 42°
2026-04-16 08:52 -26.11114 161.71517 39160 ft 527 kts 42°
2026-04-16 08:52 -26.06019 161.77384 39162 ft 527 kts 42°
2026-04-16 08:53 -26.00928 161.83239 39158 ft 527 kts 42°
2026-04-16 08:53 -25.95838 161.89084 39148 ft 526 kts 42°
2026-04-16 08:54 -25.90764 161.94906 39154 ft 526 kts 42°
2026-04-16 08:54 -25.85681 162.00729 39156 ft 526 kts 42°
2026-04-16 08:55 -25.80562 162.06584 39155 ft 526 kts 42°
2026-04-16 08:55 -25.75483 162.12388 39155 ft 526 kts 42°
2026-04-16 08:56 -25.71238 162.17232 39143 ft 525 kts 43°
2026-04-16 08:56 -25.66133 162.23051 39152 ft 524 kts 43°
2026-04-16 08:57 -25.60227 162.29772 39161 ft 525 kts 42°
2026-04-16 08:57 -25.55969 162.34611 39149 ft 525 kts 42°
2026-04-16 08:58 -25.50872 162.40398 39150 ft 526 kts 42°
2026-04-16 08:58 -25.45747 162.46210 39147 ft 526 kts 43°
2026-04-16 08:59 -25.40657 162.51975 39142 ft 525 kts 43°
2026-04-16 08:59 -25.35563 162.57736 39148 ft 524 kts 43°
2026-04-16 09:00 -25.30469 162.63489 39150 ft 524 kts 43°
2026-04-16 09:00 -25.25357 162.69256 39149 ft 524 kts 43°
2026-04-16 09:01 -25.17717 162.77862 39138 ft 524 kts 43°
2026-04-16 09:02 -25.12603 162.83614 39140 ft 523 kts 43°
2026-04-16 09:02 -25.07518 162.89324 39142 ft 522 kts 43°
2026-04-16 09:03 -25.02425 162.95039 39141 ft 522 kts 43°
2026-04-16 09:03 -24.97334 163.00743 39142 ft 523 kts 43°
2026-04-16 09:04 -24.92235 163.06436 39132 ft 522 kts 43°
2026-04-16 09:04 -24.87108 163.12149 39134 ft 522 kts 43°
2026-04-16 09:05 -24.82017 163.17817 39132 ft 521 kts 43°
2026-04-16 09:05 -24.76931 163.23476 39134 ft 521 kts 43°
2026-04-16 09:06 -24.71849 163.29124 39136 ft 521 kts 43°
2026-04-16 09:06 -24.66734 163.34801 39123 ft 521 kts 43°
2026-04-16 09:07 -24.61640 163.40447 39132 ft 520 kts 43°
2026-04-16 09:07 -24.56555 163.46076 39132 ft 520 kts 43°
2026-04-16 09:08 -24.51460 163.51710 39137 ft 520 kts 43°
2026-04-16 09:08 -24.46334 163.57371 39127 ft 520 kts 43°
2026-04-16 09:09 -24.41255 163.62973 39116 ft 520 kts 43°
2026-04-16 09:09 -24.36147 163.68602 39133 ft 519 kts 43°
2026-04-16 09:10 -24.31057 163.74203 39128 ft 519 kts 43°
2026-04-16 09:10 -24.25966 163.79797 39127 ft 519 kts 43°
2026-04-16 09:11 -24.20839 163.85426 39126 ft 519 kts 43°
2026-04-16 09:11 -24.15747 163.91008 39128 ft 520 kts 43°
2026-04-16 09:12 -24.10654 163.96585 39115 ft 519 kts 43°
2026-04-16 09:12 -24.05532 164.02188 39137 ft 519 kts 43°
2026-04-16 09:13 -24.00441 164.07750 39123 ft 519 kts 43°
2026-04-16 09:13 -23.95320 164.13338 39121 ft 519 kts 43°
2026-04-16 09:14 -23.90222 164.18895 39126 ft 519 kts 43°
2026-04-16 09:14 -23.85108 164.24461 39126 ft 519 kts 42°
2026-04-16 09:15 -23.79983 164.30034 39127 ft 519 kts 42°
2026-04-16 09:15 -23.74875 164.35582 39126 ft 519 kts 42°
2026-04-16 09:16 -23.69736 164.41157 39124 ft 520 kts 43°
2026-04-16 09:16 -23.64626 164.46695 39118 ft 520 kts 42°
2026-04-16 09:17 -23.59503 164.52239 39095 ft 519 kts 43°
2026-04-16 09:17 -23.56950 164.55001 38954 ft 511 kts 43°
2026-04-16 09:17 -23.54424 164.57732 38365 ft 510 kts 43°
2026-04-16 09:17 -23.51912 164.60445 37513 ft 515 kts 42°
2026-04-16 09:18 -23.49356 164.63204 36804 ft 517 kts 42°
2026-04-16 09:18 -23.46794 164.65969 36281 ft 514 kts 42°
2026-04-16 09:18 -23.44294 164.68667 35889 ft 509 kts 42°
2026-04-16 09:18 -23.41780 164.71376 35492 ft 504 kts 42°
2026-04-16 09:19 -23.39278 164.74069 35003 ft 502 kts 41°
2026-04-16 09:19 -23.36811 164.76721 34498 ft 501 kts 41°
2026-04-16 09:19 -23.34319 164.79399 33989 ft 500 kts 41°
2026-04-16 09:19 -23.31876 164.82024 33469 ft 497 kts 41°
2026-04-16 09:20 -23.29439 164.84642 33146 ft 490 kts 41°
2026-04-16 09:20 -23.27031 164.87230 32799 ft 483 kts 41°
2026-04-16 09:20 -23.24633 164.89805 32365 ft 479 kts 41°
2026-04-16 09:20 -23.22288 164.92319 31899 ft 477 kts 41°
2026-04-16 09:21 -23.19923 164.94853 31456 ft 474 kts 40°
2026-04-16 09:21 -23.17577 164.97366 31032 ft 471 kts 40°
2026-04-16 09:21 -23.15272 164.99835 30635 ft 467 kts 40°
2026-04-16 09:21 -23.12960 165.02309 30251 ft 464 kts 40°
2026-04-16 09:22 -23.10669 165.04760 29807 ft 460 kts 40°
2026-04-16 09:22 -23.08387 165.07199 29370 ft 457 kts 40°
2026-04-16 09:22 -23.06151 165.09588 28938 ft 454 kts 40°
2026-04-16 09:22 -23.03898 165.11994 28504 ft 451 kts 40°
2026-04-16 09:23 -23.01661 165.14381 28133 ft 447 kts 40°
2026-04-16 09:23 -22.99477 165.16713 27787 ft 443 kts 40°
2026-04-16 09:23 -22.97289 165.19047 27342 ft 433 kts 40°
2026-04-16 09:23 -22.95157 165.21323 26565 ft 428 kts 40°
2026-04-16 09:24 -22.93030 165.23588 25693 ft 426 kts 41°
2026-04-16 09:24 -22.90941 165.25812 24892 ft 423 kts 41°
2026-04-16 09:24 -22.88838 165.28049 24176 ft 419 kts 41°
2026-04-16 09:24 -22.86789 165.30229 23482 ft 413 kts 41°
2026-04-16 09:25 -22.84746 165.32403 22759 ft 406 kts 41°
2026-04-16 09:25 -22.82763 165.34513 22118 ft 397 kts 41°
2026-04-16 09:25 -22.80804 165.36597 21461 ft 389 kts 41°
2026-04-16 09:25 -22.78883 165.38638 20806 ft 382 kts 41°
2026-04-16 09:26 -22.77011 165.40627 20326 ft 368 kts 41°
2026-04-16 09:26 -22.75241 165.42508 19954 ft 352 kts 41°
2026-04-16 09:26 -22.73525 165.44332 19616 ft 339 kts 41°
2026-04-16 09:26 -22.71843 165.46114 19301 ft 339 kts 40°
2026-04-16 09:27 -22.70114 165.47939 18969 ft 355 kts 40°
2026-04-16 09:27 -22.68332 165.49820 18591 ft 362 kts 41°
2026-04-16 09:27 -22.66520 165.51737 18173 ft 362 kts 41°
2026-04-16 09:27 -22.64740 165.53623 17763 ft 360 kts 41°
2026-04-16 09:28 -22.62954 165.55515 17392 ft 357 kts 41°
2026-04-16 09:28 -22.61177 165.57397 17019 ft 354 kts 41°
2026-04-16 09:28 -22.59423 165.59254 16657 ft 351 kts 41°
2026-04-16 09:28 -22.57679 165.61098 16278 ft 349 kts 41°
2026-04-16 09:29 -22.55964 165.62911 15916 ft 346 kts 41°
2026-04-16 09:29 -22.54239 165.64735 15545 ft 344 kts 41°
2026-04-16 09:29 -22.52527 165.66543 15181 ft 341 kts 42°
2026-04-16 09:29 -22.50853 165.68311 14824 ft 339 kts 41°
2026-04-16 09:30 -22.49163 165.70095 14451 ft 337 kts 41°
2026-04-16 09:30 -22.47502 165.71847 14104 ft 335 kts 42°
2026-04-16 09:30 -22.45832 165.73610 13701 ft 333 kts 43°
2026-04-16 09:30 -22.44169 165.75364 13297 ft 331 kts 42°
2026-04-16 09:31 -22.42518 165.77105 12921 ft 328 kts 42°
2026-04-16 09:31 -22.40905 165.78804 12565 ft 325 kts 41°
2026-04-16 09:31 -22.39288 165.80507 12220 ft 322 kts 43°
2026-04-16 09:31 -22.37684 165.82197 11875 ft 320 kts 41°
2026-04-16 09:32 -22.36111 165.83850 11541 ft 317 kts 41°
2026-04-16 09:32 -22.34530 165.85514 11196 ft 316 kts 41°
2026-04-16 09:32 -22.32955 165.87170 10858 ft 314 kts 40°
2026-04-16 09:32 -22.31411 165.88794 10527 ft 312 kts 41°
2026-04-16 09:33 -22.29861 165.90426 10231 ft 309 kts 41°
2026-04-16 09:33 -22.28345 165.92022 10067 ft 296 kts 41°
2026-04-16 09:33 -22.26892 165.93549 9770 ft 287 kts 41°
2026-04-16 09:33 -22.25496 165.95013 9481 ft 278 kts 41°
2026-04-16 09:34 -22.24099 165.96481 9198 ft 281 kts 41°
2026-04-16 09:34 -22.22682 165.97967 8904 ft 283 kts 41°
2026-04-16 09:34 -22.21210 165.99273 8588 ft 271 kts 25°
2026-04-16 09:34 -22.19416 165.99771 8286 ft 264 kts
2026-04-16 09:35 -22.17586 165.99706 7964 ft 262 kts 353°
2026-04-16 09:35 -22.15788 165.99506 7735 ft 263 kts 352°
2026-04-16 09:35 -22.13959 165.99285 7473 ft 265 kts 352°
2026-04-16 09:35 -22.12118 165.99067 7206 ft 266 kts 353°
2026-04-16 09:36 -22.10305 165.98861 6934 ft 264 kts 353°
2026-04-16 09:36 -22.08474 165.98660 6668 ft 262 kts 354°
2026-04-16 09:36 -22.06657 165.98465 6437 ft 259 kts 353°
2026-04-16 09:36 -22.04968 165.98287 6205 ft 238 kts 354°
2026-04-16 09:37 -22.03363 165.98118 5870 ft 223 kts 354°
2026-04-16 09:37 -22.01884 165.97964 5608 ft 210 kts 354°
2026-04-16 09:37 -22.00442 165.97814 5392 ft 207 kts 355°
2026-04-16 09:37 -21.98973 165.97662 5171 ft 212 kts 355°
2026-04-16 09:38 -21.97504 165.97510 4966 ft 219 kts 355°
2026-04-16 09:38 -21.95966 165.97352 4732 ft 223 kts 355°
2026-04-16 09:38 -21.94437 165.97193 4551 ft 216 kts 355°
2026-04-16 09:38 -21.92967 165.97041 4453 ft 208 kts 356°
2026-04-16 09:39 -21.91546 165.96893 4376 ft 199 kts 356°
2026-04-16 09:39 -21.90218 165.97054 4265 ft 194 kts 27°
2026-04-16 09:39 -21.89292 165.98060 4211 ft 193 kts 66°
2026-04-16 09:39 -21.89204 165.99436 4124 ft 182 kts 107°
2026-04-16 09:40 -21.89823 166.00610 4011 ft 181 kts 121°
2026-04-16 09:40 -21.90481 166.01756 3768 ft 177 kts 120°
2026-04-16 09:40 -21.91099 166.02854 3530 ft 168 kts 119°
2026-04-16 09:40 -21.91692 166.03910 3325 ft 162 kts 119°
2026-04-16 09:41 -21.92268 166.04936 3114 ft 158 kts 119°
2026-04-16 09:41 -21.92822 166.05922 2916 ft 149 kts 119°
2026-04-16 09:41 -21.93339 166.06844 2758 ft 141 kts 118°
2026-04-16 09:41 -21.93847 166.07751 2560 ft 141 kts 120°
2026-04-16 09:42 -21.94351 166.08643 2379 ft 136 kts 120°
2026-04-16 09:42 -21.94844 166.09523 2194 ft 136 kts 120°
2026-04-16 09:42 -21.95342 166.10410 2022 ft 144 kts 119°
2026-04-16 09:42 -21.95858 166.11330 1824 ft 141 kts 119°
2026-04-16 09:43 -21.96365 166.12235 1639 ft 140 kts 120°
2026-04-16 09:43 -21.96702 166.12836 1514 ft 141 kts 120°
2026-04-16 09:43 -21.97377 166.14040 1268 ft 141 kts 120°
2026-04-16 09:43 -21.97886 166.14948 1102 ft 143 kts 119°
2026-04-16 09:44 -21.98225 166.15549 958 ft 139 kts 120°
2026-04-16 09:44 -21.98718 166.16432 704 ft 134 kts 120°
2026-04-16 09:44 -21.99352 166.17573 464 ft 133 kts 118°
2026-04-16 09:44 -21.99669 166.18145 399 ft 132 kts 121°
2026-04-16 09:45 -22.00136 166.18986 291 ft 129 kts 120°
2026-04-16 09:45 -22.00601 166.19801 145 ft 129 kts 121°
2026-04-16 09:45 -22.01071 166.20628 27 ft 119 kts 121°
2026-04-16 09:45 -22.01403 166.21217 27 ft 65 kts 121°
2026-04-16 09:46 -22.01543 166.21465 28 ft 20 kts 121°
2026-04-16 09:46 -22.01613 166.21592 31 ft 13 kts 113°
2026-04-16 09:46 -22.01569 166.21657 31 ft 9 kts 32°
2026-04-16 09:46 -22.01513 166.21658 30 ft 9 kts 319°
2026-04-16 09:47 -22.01479 166.21597 29 ft 10 kts 301°
2026-04-16 09:47 -22.01440 166.21527 29 ft 11 kts 301°
2026-04-16 09:47 -22.01392 166.21461 28 ft 11 kts 341°
2026-04-16 09:47 -22.01331 166.21483 28 ft 8 kts 33°
2026-04-16 09:48 -22.01315 166.21527 28 ft 5 kts 76°
2026-04-16 09:48 -22.01319 166.21553 29 ft 0 kts 117°
2026-04-16 09:48 -22.01324 166.21566 29 ft 2 kts 114°
2026-04-16 09:48 -22.01330 166.21578 29 ft 2 kts 119°
2026-04-16 09:49 -22.01333 166.21586 29 ft 1 kts 118°
2026-04-16 09:49 -22.01335 166.21590 29 ft 0 kts 119°
2026-04-16 09:49 -22.01338 166.21594 29 ft 1 kts 119°